[Iaude] MPEC T105: 2023 TE3 [a=2.07,e=0.46,i=9.5,H=23.6]

mpec at marsden.cfa.harvard.edu mpec at marsden.cfa.harvard.edu
Sun Oct 8 10:33:51 EDT 2023


M.P.E.C. 2023-T105                              Issued 2023 October 8, 14:32 UT

     The Minor Planet Electronic Circulars contain information on unusual
         minor planets, routine data on comets and natural satellites,
         and occasional editorial announcements.  They are published
    on behalf of Division F of the International Astronomical Union by the
          Minor Planet Center, Smithsonian Astrophysical Observatory,
                          Cambridge, MA 02138, U.S.A.
			  
             Prepared using the Tamkin Foundation Computer Network

                              MPC at CFA.HARVARD.EDU
            URL https://www.minorplanetcenter.net/    ISSN 1523-6714

                                    2023 TE3                                    


Observations:
     K23T03E*1C2023 10 06.42254602 41 50.489-19 08 56.58         20.25GVET105G96
     K23T03E 1C2023 10 06.42726702 41 51.014-19 08 38.33         20.55GVET105G96
     K23T03E 1C2023 10 06.43197802 41 51.583-19 08 18.92         20.67GVET105G96
     K23T03E 1C2023 10 06.43669202 41 52.199-19 08 00.02         21.97GVET105G96
     K23T03E KC2023 10 06.46320402 41 55.381-19 06 09.86         20.99GVET105I52
     K23T03E KC2023 10 06.46660902 41 55.849-19 05 55.50         20.67GVET105I52
     K23T03E KC2023 10 06.46832002 41 56.033-19 05 48.66         21.12GVET105I52
     K23T03E 7C2023 10 07.12073902 43 29.377-18 20 56.69         20.7 GVET105Z84
     K23T03E 7C2023 10 07.12762002 43 30.179-18 20 27.38         20.9 GVET105Z84
     K23T03E KC2023 10 07.33268 02 44 01.01 -18 06 06.0                VET105691
     K23T03E KC2023 10 07.34625 02 44 02.75 -18 05 06.8          20.5 RVET105691
     K23T03E KC2023 10 07.35985 02 44 04.26 -18 04 09.8          20.6 RVET105691
     K23T03E KC2023 10 08.33835602 46 20.838-16 53 56.69         20.49GVET105I52
     K23T03E KC2023 10 08.34038402 46 21.068-16 53 47.54         20.87GVET105I52
     K23T03E KC2023 10 08.34240102 46 21.331-16 53 39.44         20.52GVET105I52
     K23T03E KC2023 10 08.34442202 46 21.540-16 53 30.12         21.09GVET105I52

Observer details:
691 Steward Observatory, Kitt Peak-Spacewatch.  Observer J. V. Scotti.  0.9-m
    f/3 reflector + CCD.
G96 Mt. Lemmon Survey.  Observer K. W. Wierzchos.  Measurers E. C. Beshore, D.
    Fay, J. B. Fazekas, D. C. Fuls, A. R. Gibbs, A. D. Grauer, H. Groeller, J.
    K. Hogan, R. A. Kowalski, S. M. Larson, G. J. Leonard, D. Rankin, R. L.
    Seaman, F. C. Shelly, K. W. Wierzchos.  1.5-m reflector + 10K CCD.
I52 Steward Observatory, Mt. Lemmon Station.  Observers D. Rankin, J. B.
    Fazekas.  Measurers E. C. Beshore, D. Fay, J. B. Fazekas, D. C. Fuls, A.
    R. Gibbs, A. D. Grauer, H. Groeller, J. K. Hogan, R. A. Kowalski, S. M.
    Larson, G. J. Leonard, D. Rankin, R. L. Seaman, F. C. Shelly, K. W.
    Wierzchos.  1.0-m prime focus + CCD.
Z84 Calar Alto-Schmidt.  Observers F. Ocana, M. Micheli, R. Kresken, L.
    Conversi.  Measurers F. Ocana, M. Micheli.  0.8-m f/3 Schmidt + CCD.

Orbital elements:
2023 TE3                                                 Earth MOID = 0.1267 AU
Epoch 2023 Sept. 13.0 TT = JDT 2460200.5                Bell                    
M 348.96130              (2000.0)            P               Q                  
n   0.33127893     Peri.  343.98424     +0.90933671     -0.40222885             
a   2.0685856      Node    40.26477     +0.39751281     +0.76441678             
e   0.4603787      Incl.    9.47445     +0.12284267     +0.50386401             
P   2.98           H   23.65          G   0.15           U   9                  
Residuals in seconds of arc
231006 G96  0.4+  1.1+    231006 I52  0.2-  0.5+    231008 I52  0.0   0.0
231006 G96  0.2-  0.0     231007 Z84  0.2+  0.4+    231008 I52  0.1-  0.3+
231006 G96  0.3-  0.0     231007 Z84  0.2-  0.7+    231008 I52  0.3+  0.4-
231006 G96  0.3+  0.4-    231007 691  1.4-  3.5-    231008 I52  0.1-  0.1+
231006 I52  0.5-  0.5+    231007 691  0.5+  1.2-
231006 I52  0.2+  0.7+    231007 691  0.9-  1.4-

Ephemeris:
2023 TE3                 a,e,i = 2.07, 0.46, 9                   q = 1.1163
Date    TT    R. A. (2000) Decl.     Delta      r    Elong.  Phase     V
2023 09 08    01 26 59.7 -35 28 21   0.2403  1.1920   135.9    36.1    22.4
...
2023 09 23    02 07 36.0 -30 23 08   0.1845  1.1453   136.9    36.8    21.8
...
2023 10 01    02 28 30.6 -24 36 32   0.1611  1.1290   139.6    35.1    21.4
...
2023 10 07    02 43 13.1 -18 28 36   0.1473  1.1210   143.1    32.4    21.1
2023 10 08    02 45 33.0 -17 17 48   0.1453  1.1200   143.8    31.8    21.1
2023 10 09    02 47 50.6 -16 04 20   0.1435  1.1192   144.6    31.2    21.0
...
2023 10 15    03 00 40.6 -07 51 44   0.1352  1.1163   149.7    26.8    20.8
...
2023 10 23    03 15 01.1 +04 38 31   0.1325  1.1187   157.5    19.9    20.5
...
2023 11 07    03 32 43.6 +26 07 10   0.1546  1.1414   165.2    12.8    20.6

M. P. C. Staff               (C) Copyright 2023 MPC           M.P.E.C. 2023-T105





More information about the Iaude mailing list